Location: Rancho Del Sol Observatory
(38.7214°N, 120.6350°W)
Time: 02:39:08
(UTC-08:00)

A-11 Canister half - Pass Details

Date: 30 January 2020
Orbit: 1517 x 1683 km, 47.2° (Epoch: 22 February)

Event Time Altitude Azimuth Distance (km) Brightness Sun altitude
Exits shadow 05:06:24 40° 273° (W) 2,104 9.2 -24.3°
Maximum altitude 05:09:32 56° 222° (SW) 1,770 9.0 -23.7°
Drops below altitude 10° 05:18:33 10° 147° (SSE) 3,713 11.5 -22.0°
Sets 05:21:42 0° 143° (SE) 4,712 12.2 -21.3°
